sat.trackr.live / text

‹ back to catalog

ASTRA 4A

NORAD 32299 · 2007-057A

PAYLOAD ACTIVE UNKNOWN

§ Identity

Operator
Country
SES
Launch date
2007-11-17
Launch site
TYMSC
Launch vehicle
Mass (kg)
RCS (m²)
20.00

Purposes: comms

External: N2YO · Heavens-Above · Gunter

§ Orbital elements

Epoch: 2026-05-25T03:46:02.125056Z

Period
1,436.06 min
Inclination
0.0181°
Eccentricity
0.0002455
Mean motion
1.00274347 rev/d
Perigee alt
35,775.5 km
Apogee alt
35,796.2 km
Semi-major
42,164.0 km
B*
0.0000e+0
RAAN
309.6674°
Arg perigee
117.6832°
Mean anomaly
236.7140°
Rev number
5,141

§ Raw data

ASTRA 4A1 32299U 07057A   26145.15696904  .00000031  00000+0  00000+0 0  99942 32299   0.0181 309.6674 0002455 117.6832 236.7140  1.00274347 51418

JSON: /api/v1/satellites/32299 · /tle

For live sub-satellite position, see the globe view (requires WebGL).

§ Visibility from observer

Set your observer location to see the next 7 days of passes ≥ 10°. The values pass through the URL so the page stays shareable.

No JS? Fill the form by hand. The geolocation button needs JavaScript.